Location: Sewell
(39.7660°N, 75.1450°W)
Time: 03:33:01
(UTC-04:00)

ISS - Visible Passes

Search period start: 20 September 2017 00:00
Search period end: 30 September 2017 00:00
Orbit: 401 x 407 km, 51.6° (Epoch: 20 September)

Date Brightness Start Highest point End Pass type
(mag) Time Alt. Az. Time Alt. Az. Time Alt. Az.
20 Sep -1.4 04:27:02 23° ENE 04:27:02 23° ENE 04:28:44 10° E visible
20 Sep -2.8 05:59:45 13° WNW 06:02:08 27° SW 06:04:58 10° SSE visible
21 Sep -3.3 05:10:35 44° S 05:10:35 44° S 05:13:07 10° SE visible
22 Sep -1.5 05:54:21 11° SW 05:54:21 11° SW 05:54:45 10° SSW visible
23 Sep -1.8 20:02:13 10° S 20:03:28 15° SSE 20:03:28 15° SSE visible
24 Sep -2.5 20:44:56 10° SW 20:46:54 34° SW 20:46:54 34° SW visible
25 Sep -3.4 19:52:47 10° SSW 19:55:53 41° SE 19:57:23 24° E visible
25 Sep -0.5 21:29:39 10° W 21:30:05 12° W 21:30:05 12° W visible
26 Sep -2.7 20:36:48 10° WSW 20:39:55 40° NNW 20:40:20 38° N visible
27 Sep -3.7 19:44:12 10° WSW 19:47:27 76° NW 19:50:24 12° NE visible
27 Sep -0.6 21:22:13 10° WNW 21:23:04 13° NW 21:23:04 13° NW visible
28 Sep -1.6 20:29:04 10° WNW 20:31:43 22° NNW 20:32:59 18° N visible
29 Sep -2.3 19:36:06 10° W 19:39:07 34° NNW 19:42:10 10° NE visible
29 Sep -0.5 21:14:58 10° NW 21:15:24 11° NNW 21:15:24 11° NNW visible
